Location: *
(45.9500°N, 9.0833°E)
Time: 00:25:07
(UTC+00:00)

Tiros 1 despin weight - Pass Details

Date: 30 June 2021
Orbit: 593 x 642 km, 48.2° (Epoch: 02 August)

Event Time Altitude Azimuth Distance (km) Brightness Sun altitude
Rises 23:56:56 0° 195° (SSW) 2,863 - -20.6°
Reaches altitude 10° 00:00:01 10° 173° (S) 1,952 - -20.5°
Maximum altitude 00:02:41 16° 137° (SE) 1,612 - -20.4°
Exits shadow 00:04:02 14° 116° (ESE) 1,704 ? -20.4°
Drops below altitude 10° 00:05:19 10° 100° (E) 1,942 ? -20.3°
Sets 00:08:23 0° 78° (ENE) 2,841 ? -20.3°
